Location: Lancaster
(34.6980°N, 118.1360°W)
Time: 12:14:14
(UTC-08:00)

N. Korean satellite - Pass Details

Date: 13 November 2017
Orbit: 460 x 514 km, 97.2° (Epoch: 22 November)

Event Time Altitude Azimuth Distance (km) Brightness Sun altitude
Rises 05:37:09 0° 35° (NE) 2,596 10.5 -10.1°
Reaches altitude 10° 05:40:11 10° 63° (ENE) 1,718 10.1 -9.5°
Maximum altitude 05:42:03 13° 94° (E) 1,518 10.5 -9.2°
Drops below altitude 10° 05:43:55 10° 124° (SE) 1,722 10.7 -8.8°
Sets 05:46:56 0° 152° (SSE) 2,609 11.0 -8.2°
